OneWeb SL0210

operational
NORAD ID: 48787 Int'l Des: 2021-045 Owner: ONEWEBN Country: UK Constellation: oneweb
LEOCIRCULARPOLARONEWEB_TYPE

OneWeb SL0210について

説明を読み込み中...

リアルタイム位置

3D地球を読み込み中...

次回通過

高度履歴

Altitude vs Time

uPlot chart will show altitude changes over time

軌道要素

1 48787U 21045W 26036.72500150 -.00000025 00000-0 -10140-3 0 9991
2 48787 87.8994 285.4231 0000881 49.4515 310.6692 13.15557726227034
Epoch: Feb 5, 2026 • Age: 13 hours

現在のステータス

高度 1221.3 km
速度 7.24 km/s
衛星直下点 -50.19°S, 57.57°E
打ち上げ日 May 28, 2021
運用期間 4.6 years
タイプ internet

技術仕様

分類 Payload
質量 148.00 kg
乾燥質量 140.00 kg
総質量 148.00 kg
長さ 1.30 m
直径 1.00 m
スパン 5.00 m
形状 Trapezoid+2 pan
製造者 ONEWUS
バスタイプ ARROW
フェーズステータス In Orbit
所有者/国 ONEWEBN/UK

大規模コンステレーション

Loading constellations...